Preview of NWS' New Version of Forecast
This preview is not operational and should not be used for support decisions.
Latest weather observations around

Windsor Locks, Bradley International Airport (KBDL)

Using English Units (Switch to International System of Units)
Date/ Time (EDT) Wind (mph) Vis. (mi) Weather Sky Cond. Temp (°F) Rel. Humidity Wind Chill (°F) Heat Index (°F) Pressure Precip. (in)
Air Dwpt 6 hour Altimeter (inHg) Sea level (inHg) 1 hr 3 hr 6 hr
Max Min
Aug 25 13:51 ENE 8 10 Mostly Cloudy FEW042 BKN055 73 49     43%   72 30.29 30.29      
Aug 25 12:51 NNE 13 10 Partly Cloudy SCT047 73 50     44%   72 30.3 30.29      
Aug 25 11:51 NNE 15 10 Partly Cloudy FEW037 SCT043 73 50     44%   72 30.3 30.3      
Aug 25 10:51 NNE 14 10 Mostly Cloudy FEW034 BKN042 68 52     57%     30.31 30.31      
Aug 25 09:51 NE 13 10 Mostly Cloudy FEW023 SCT029 BKN040 69 54     59%     30.32 30.32      
Aug 25 09:08 NE 14 10 Mostly Cloudy BKN024 BKN055 69 56     63%     30.33        
Aug 25 08:51 NNE 13 10 Mostly Cloudy FEW022 BKN055 67 56     68%     30.32 30.32      
Aug 25 07:51 NNE 8 10 Partly Cloudy FEW030 SCT060 64 56     75%     30.31 30.31      
Aug 25 06:51 NNE 7 10 Mostly Cloudy FEW031 BKN055 BKN080 60 56     86%     30.3 30.3      
Aug 25 05:51 NNE 6 10 Mostly Cloudy SCT032 BKN050 59 56     90%     30.29 30.29      
Aug 25 04:51 NNE 5 10 Partly Cloudy SCT028 57 54     89%     30.29 30.29      
Aug 25 03:51 N 5 10 Mostly Clear FEW080 57 54     89%     30.29 30.29      
Aug 25 02:51 N 5 10 Mostly Clear FEW080 59 54     83%     30.28 30.28      
Aug 25 01:51 N 6 10 Mostly Cloudy BKN080 61 54     78%     30.29 30.28      
Aug 25 00:51 ENE 3 10 Mostly Cloudy FEW055 BKN080 65 54     68%     30.3 30.29      
Aug 24 23:51 E 6 10 Mostly Cloudy BKN055 BKN080 66 54     65%     30.29 30.29      
Aug 24 22:51 E 8 10 Mostly Cloudy FEW049 BKN060 BKN075 67 55     66%     30.28 30.27      
Aug 24 21:51 ESE 9 10 Mostly Cloudy BKN050 BKN080 68 56     65%     30.26 30.26      
Aug 24 20:51 E 7 10 Mostly Cloudy FEW065 BKN080 70 55     59%     30.23 30.23      
Aug 24 19:51 E 6 10 Mostly Cloudy FEW055 BKN070 71 53     53%   70 30.21 30.21      
Aug 24 18:51 E 6 10 Mostly Cloudy FEW050 BKN070 72 52     49%   71 30.2 30.19      
Aug 24 17:51 E 8 10 Mostly Cloudy BKN070 74 51     45%   73 30.18 30.18      
Aug 24 16:51 N 6 10 Mostly Cloudy FEW045 BKN060 74 53     48%   73 30.17 30.17      
Aug 24 15:51 NNE 6 10 Mostly Cloudy BKN060 74 51     45%   73 30.17 30.16      
Aug 24 14:51 NE 7 10 Partly Cloudy SCT050 77 51     40%   76 30.17 30.16      
Aug 24 13:51 6 10 Partly Cloudy SCT048 74 50     43%   73 30.17 30.16      
Aug 24 12:51 NE 13 10 Mostly Clear FEW044 73 51     46%   72 30.16 30.16      
Aug 24 11:51 N 9 10 Mostly Clear FEW040 73 51     46%   72 30.16 30.16      
Aug 24 10:51 N 10 10 Mostly Clear FEW030 71 51     49%   70 30.17 30.17      
Aug 24 09:51 N 10 10 Clear CLR 69 51     53%     30.17 30.17      
Aug 24 08:51 N 8 10 Clear CLR 64        %     30.16 30.16      
Aug 24 07:51 N 5 10 Mostly Clear FEW250 60        %     30.16 30.16      
Aug 24 06:51 NE 5 10 Mostly Clear FEW250 55        %     30.15 30.15      
Aug 24 05:51 NNE 3 10 Mostly Clear FEW250 54        %     30.13 30.12      
Aug 24 04:51 N 6 10 Clear CLR 55        %     30.11 30.11      
Aug 24 03:51 N 8 10 Clear CLR 57 51     81%     30.1 30.1      
Aug 24 02:51 NNW 6 10 Clear CLR 58 52     81%     30.09 30.09      
Aug 24 01:51 NNW 7 10 Mostly Clear FEW250 59 54     83%     30.09 30.09      
Aug 24 00:51 N 7 10 Mostly Clear FEW070 FEW250 61 55     81%     30.09 30.08      
Aug 23 23:51 NNW 7 10 Mostly Clear FEW070 FEW250 61 55     81%     30.07 30.06      
Aug 23 22:51 NNW 7 10 Partly Cloudy FEW070 SCT250 62 56     80%     30.04 30.03      
Aug 23 21:51 N 7 10 Partly Cloudy FEW060 SCT250 64 55     73%     30.02 30.02      
Aug 23 20:51 NNW 5 10 Mostly Cloudy SCT060 BKN250 66 56     70%     30.01 30.01      
Aug 23 19:51 NNW 7 10 Mostly Cloudy SCT055 SCT150 BKN200 BKN250 69 55     61%     30 29.99      
Aug 23 18:51 NW 8 10 Mostly Cloudy FEW060 FEW150 BKN200 BKN250 71 56     59%   71 29.99 29.98      
Aug 23 17:51 NW 5 10 Cloudy FEW055 FEW150 OVC200 73 54     51%   72 29.98 29.97      
Aug 23 16:51 NW 6 10 Cloudy FEW055 FEW150 OVC200 75 53     46%   74 29.97 29.97      
Aug 23 15:51 N 6 10 Mostly Cloudy FEW055 SCT150 BKN220 76 53     45%   75 29.97 29.96      
Aug 23 14:51 NNW 8 10 Mostly Cloudy FEW050 FEW150 BKN210 77 53     43%   76 29.97 29.96      
Aug 23 13:51 N 5 10 Mostly Cloudy FEW039 FEW060 SCT160 BKN190 BKN220 76 55     48%   75 29.97 29.96      
Aug 23 12:51 Calm 10 Mostly Cloudy FEW050 FEW130 SCT180 BKN210 75 56     52%   75 29.97 29.97      
Aug 23 11:51 N 6 10 Mostly Cloudy FEW080 FEW120 BKN190 73 56     55%   73 29.99 29.98      
Aug 23 10:51 NW 5 10 Mostly Cloudy FEW080 FEW120 BKN190 73 57     57%   73 29.99 29.99      
Aug 23 09:51 Calm 10 Mostly Cloudy FEW120 FEW150 BKN180 70 57     63%     30 29.99      
Aug 23 08:51 Calm 10 Mostly Cloudy FEW080 BKN150 BKN170 68 57     68%     29.99 29.98      
Aug 23 07:51 W 3 10 Mostly Cloudy FEW080 BKN110 BKN150 67 56     68%     29.98 29.97     0
Aug 23 06:51 NNW 3 10 Cloudy FEW080 BKN110 OVC150 65 56     73%     29.96 29.96      
Aug 23 05:51 N 5 10 Cloudy FEW044 FEW080 BKN110 OVC140 65 57     76%     29.93 29.93      
Aug 23 04:51 NNW 6 10 Cloudy BKN041 BKN070 OVC090 66 60     81%     29.92 29.92   0  
Aug 23 03:51 NW 3 10 Cloudy OVC041 66 62     87%     29.93 29.93      
Aug 23 02:51 NNE 3 10 Cloudy BKN038 OVC060 66 60     81%     29.92 29.92 0    
Aug 23 01:51 WNW 5 10 Cloudy OVC044 69 64     84%     29.92 29.92      
Aug 23 00:51 3 10 Cloudy BKN042 BKN065 OVC130 71 64     79%   72 29.92 29.92      
Aug 22 23:51 WSW 7 10 Cloudy SCT060 BKN075 OVC120 72 62     71%   72 29.91 29.91      
Aug 22 22:51 Calm 10 Mostly Cloudy FEW065 FEW090 BKN140 BKN220 73        %     29.89 29.88      
Aug 22 21:51 WNW 5 10 Cloudy BKN075 BKN095 BKN140 OVC220 74        %     29.89 29.88      
Aug 22 20:51 NW 5 10 Mostly Cloudy FEW003 BKN085 BKN100 74        %     29.87 29.87      
Aug 22 19:51 SW 3 10 Mostly Cloudy FEW005 FEW060 BKN085 BKN220 BKN250 74        %     29.86 29.85     0
Aug 22 18:51 Calm 10 Mostly Cloudy FEW050 BKN070 BKN095 BKN250 76        %     29.85 29.85 0    
Aug 22 17:51 WSW 10 6 Light Rain and Fog/Mist FEW030 BKN065 BKN085 OVC130 75        %     29.87 29.87 0    
Aug 22 17:36   4 Rain and Fog/Mist FEW060 BKN085 BKN100 OVC130 76        %     29.87   0    
Aug 22 16:51 NW 6 10 Light Rain SCT045 BKN060 BKN095 BKN130 85        %     29.83 29.83 0 0  
Aug 22 15:51 W 6 10 Partly Cloudy FEW050 FEW075 SCT210 SCT250 87        %     29.82 29.82      
Aug 22 14:51 W 11 10 Mostly Cloudy FEW050 SCT060 BKN250 88        %     29.85 29.84      
May 15 09:43 S 10 2 Haze OVC005 65 60     84%     29.86        
May 14 11:51 7 10 Mostly Cloudy BKN022 62 52     70%     30 30      
May 13 20:00 SSW 8 10 Cloudy BKN014 OVC100 54 49     83%     30.1        
May 13 17:51 SW 9 10 Mostly Cloudy FEW025 SCT110 BKN130 57 48     72%     30.1 30.1      
Jun 10 10:51 SSW 9 10 Mostly Cloudy FEW070 SCT095 BKN250 80 53     39%   80 29.97 29.97      
Jun 07 15:51 6 10 Mostly Clear FEW060 FEW080 74 45     36%   73 29.95 29.94      
Jun 07 09:51 N 10 10 Mostly Cloudy FEW020 BKN055 58 49     72%     29.99 29.99